Regional Weather Roundup
Issued by NWS Binghamton, NY

Home | Current Version | Previous Version | Text Only | Print | Product List | Glossary On
Versions: 1 2 3 4 5 6 7 8 9 10 11 12 13 14 15 16 17 18 19 20 21 22 23 24 25 26 27 28
000
ASUS41 KBGM 230810
RWRBGM

REGIONAL WEATHER ROUNDUP
NATIONAL WEATHER SERVICE BINGHAMTON NY
400 AM EDT FRI JUN 23 2017

Note: "fair" indicates few or no clouds below 12,000 feet with no
significant weather and/or obstructions to visibility.

* = Station(s) that does not report precipitation, such as rain,
snow, etc, also no thunder or fog.

NYZ009-015>018-022>025-036-037-044>046-055>057-062-230900
...Central New York...

CITY           SKY/WX    TMP DP  RH WIND       PRES   REMARKS
Binghamton     NOT AVBL
Cortland       FAIR      72  64  78 SW7       29.81S
Dansville      PTCLDY    72  65  78 SE5       29.78S
Elmira         NOT AVBL
Seneca Falls   SUNNY     75  66  73 S8        29.75F
Ithaca         NOT AVBL
Hamilton       CLOUDY    70  64  83 S3        29.80S
Hornell        MOCLDY    72  64  78 CALM      29.84F
Monticello     MOCLDY    64  64 100 CALM      29.88F
Norwich        PTCLDY    70  64  83 S3        29.82S
Penn Yan       CLEAR     71  64  78 W6        29.78F
Rome           CLOUDY    68  64  87 SE3       29.76S
Sidney         PTCLDY   N/A N/A N/A CALM      29.82F
Syracuse       CLOUDY    75  67  76 SW8       29.73S
$$

PAZ038>040-043-044-047-048-072-230900
...Northeast Pennsylvania...

CITY           SKY/WX    TMP DP  RH WIND       PRES   REMARKS
Hazleton         N/A     68  63  83 CALM      29.92F
Scranton       CLOUDY    71  68  90 VRB3      29.85F
$$
&&
KEY
WCI = Wind Chill Index
VSB = Visibility
HX  = Heat Index
$$




USA.gov is the U.S. government's official web portal to all federal, state and local government web resources and services.